RH
73 73 86 88 82 80 80 77 78 86 88 88 86 84 83 81 77 73 72 70 66 63 62 62 62 67 68
82 91 92 89 83 86 84 82 82 84 88 88 88 86 85 83 79 76 74 72 70 68 67 65 64 64 66
92 91 92 95 95 90 87 87 84 87 84 86 88 88 88 86 79 77 76 73 70 68 66 65 64 63 62
95 95 96 97 96 97 98 93 90 80 83 88 89 93 93 88 81 79 77 72 68 65 65 65 65 63 61
97 98 98 99 98 99 98 96 91 87 91 94 97 94 96 85 81 77 72 70 67 64 62 62 63 63 61
94 95 94 95 96 91 92 97 99 95 96 98 98 98 95 90 81 77 72 69 66 63 61 62 62 62 63
95 94 95 91 89 94 92 92 93 99 95 100 99 99 95 91 85 77 70 67 63 61 60 61 63 62 64
94 95 94 90 86 90 95 100 100 99 95 99 100 100 98 96 90 79 68 64 62 59 61 63 64 64 65
93 92 90 91 92 94 99 98 100 99 99 98 100 100 100 98 95 80 65 63 63 62 63 63 68 71 64
96 93 89 89 92 96 96 98 99 99 99 99 98 99 98 98 99 97 63 63 64 62 65 72 73 69 69
96 90 89 91 90 93 98 98 99 100 98 99 99 97 94 95 93 93 67 61 68 69 63 70 72 71 73
89 88 88 89 90 94 98 99 99 96 98 99 100 95 93 96 92 90 78 58 64 71 70 63 67 66 65
87 87 85 86 91 93 95 96 96 97 98 99 98 99 98 96 93 90 79 65 63 71 71 71 71 71 72
86 84 85 88 90 89 91 92 95 95 96 98 99 98 97 96 93 89 77 85 69 70 73 70 63 59 59
87 87 85 86 89 87 90 94 95 94 95 95 97 96 95 90 92 81 78 77 73 78 73 74 68 61 62
89 88 91 91 91 92 93 94 94 94 94 95 96 96 88 86 76 84 83 82 80 75 74 80 77 68 60
92 93 92 92 93 93 94 94 95 94 94 95 94 92 86 88 88 75 87 87 86 83 75 70 76 74 60
Wind_Speed
5 5 4 8 6 7 5 4 2 4 8 8 9 11 11 12 12 11 9 8 7 6 7 8 8 11 11
8 6 8 8 7 8 5 3 3 3 7 9 11 13 14 14 15 14 12 11 10 9 8 8 8 9 10
6 4 6 2 3 3 4 3 2 4 6 9 10 10 17 17 15 15 17 12 11 9 9 9 9 7 9
6 4 3 3 3 3 4 4 2 2 3 6 9 5 12 17 16 15 17 13 11 9 9 9 9 7 7
6 4 4 3 7 3 4 2 3 2 2 1 2 2 6 11 13 16 15 12 11 9 9 9 8 8 8
6 8 7 5 3 5 4 4 3 2 2 1 1 7 6 5 14 15 13 11 10 9 8 9 9 8 8
7 3 4 4 4 5 6 5 3 3 3 2 4 4 5 7 13 13 12 10 9 8 8 9 9 8 9
6 5 4 4 6 5 5 4 3 3 2 3 1 2 3 6 13 11 10 9 8 7 9 9 9 9 10
12 10 6 4 2 5 3 4 2 2 1 3 3 3 2 4 6 9 9 8 7 7 8 9 10 10 8
6 7 6 4 4 2 5 5 3 2 3 3 5 4 3 2 3 3 3 8 8 8 8 10 10 5 5
5 4 3 3 2 3 1 2 4 2 5 4 5 3 3 5 2 3 2 3 3 4 8 9 8 7 5
4 3 2 2 2 3 4 3 3 3 10 5 5 5 5 4 4 3 1 2 3 4 4 6 8 8 7
3 2 2 2 3 4 6 7 9 7 4 2 5 7 5 5 6 4 5 2 2 4 3 4 3 3 6
4 4 3 2 3 3 3 4 4 5 8 6 6 7 4 5 4 7 4 4 4 3 4 3 3 3 3
5 5 5 5 4 4 3 3 4 4 5 6 11 11 8 5 5 5 5 4 4 5 3 4 2 3 3
5 5 5 6 5 4 4 5 7 6 6 5 7 7 5 9 9 6 3 4 3 4 3 3 3 2 2
5 5 6 5 6 5 5 6 6 6 4 2 2 3 4 3 2 7 4 3 4 3 2 1 2 3 1
Wind_Direction
216 200 197 225 215 221 219 224 257 302 320 326 279 215 173 155 139 128 113 95 80 73 63 54 44 44 49
200 202 208 210 216 227 220 209 241 301 318 309 313 238 165 152 141 131 117 105 95 80 71 67 58 51 59
201 183 192 210 171 208 236 225 244 289 306 297 300 223 166 151 146 137 117 108 100 92 81 73 64 61 67
208 199 173 167 172 185 186 207 248 251 271 276 276 205 160 158 141 127 112 114 109 100 91 76 67 60 75
194 174 180 159 189 174 185 130 219 245 287 289 208 135 113 111 120 115 115 115 109 102 92 89 78 69 74
198 207 185 184 147 173 169 172 196 205 201 15 5 119 120 124 126 117 118 115 107 102 99 91 82 82 87
185 164 166 157 159 184 184 199 174 162 124 56 360 88 118 119 122 127 124 118 113 110 107 97 94 92 96
141 127 136 154 178 172 174 125 91 86 89 112 69 64 117 119 128 126 124 122 115 119 115 103 102 100 99
109 111 114 103 170 143 146 156 129 157 131 113 144 95 59 111 115 128 130 124 120 116 116 115 95 84 93
103 87 89 85 52 198 168 176 126 142 171 115 143 145 111 40 79 78 126 122 115 109 118 113 112 101 91
104 101 81 77 43 40 4 174 148 142 168 118 161 141 93 122 90 85 94 82 80 62 117 125 119 117 108
131 127 129 83 45 43 39 52 61 146 171 143 151 162 136 123 137 132 126 92 119 93 72 109 121 115 101
140 125 80 116 117 89 77 75 67 49 65 113 147 133 137 127 139 149 151 166 134 117 91 86 95 104 114
124 123 147 135 104 100 102 96 82 62 37 55 120 128 108 100 117 146 148 154 141 117 114 99 92 85 101
139 144 126 111 102 103 107 85 92 99 84 69 74 78 72 96 102 130 132 120 134 132 131 123 98 109 111
137 133 127 121 113 91 91 103 110 106 104 97 108 104 83 59 63 122 102 121 127 132 132 136 143 140 117
138 138 132 120 109 107 103 104 98 99 88 76 84 111 105 96 56 44 128 125 131 122 124 110 144 149 137